| time (UTC) | temp C | wind direction | speed KPH | gust KPH | rain 1hr cm | rain 24hr cm | rain mn cm | humidity % | barometer mb |
| 20260505124906 | 10 | 143 | 0.0 | 0.0 | 0.00 | 0.00 | 0.00 | 84 | 1017.6 |
| 20260505124702 | 10 | 143 | 0.0 | 0.0 | 0.00 | 0.00 | 0.00 | 84 | 1017.9 |
| 20260505124459 | 10 | 143 | 0.0 | 0.0 | 0.00 | 0.00 | 0.00 | 84 | 1017.9 |
| 20260505124255 | 10 | 124 | 0.0 | 0.0 | 0.00 | 0.00 | 0.00 | 84 | 1017.9 |
| 20260505124051 | 10 | 123 | 0.0 | 0.0 | 0.00 | 0.00 | 0.00 | 84 | 1017.9 |
| 20260505123847 | 10 | 146 | 0.0 | 0.0 | 0.00 | 0.00 | 0.00 | 84 | 1017.9 |
| 20260505123643 | 10 | 146 | 0.0 | 0.0 | 0.00 | 0.00 | 0.00 | 84 | 1017.9 |
| 20260505123439 | 10 | 146 | 0.0 | 0.0 | 0.00 | 0.00 | 0.00 | 84 | 1017.9 |
| 20260505123235 | 10 | 141 | 0.0 | 1.6 | 0.00 | 0.00 | 0.00 | 84 | 1017.6 |
| 20260505123031 | 10 | 145 | 0.0 | 0.0 | 0.00 | 0.00 | 0.00 | 84 | 1017.6 |
| 20260505122828 | 10 | 141 | 0.0 | 0.0 | 0.00 | 0.00 | 0.00 | 84 | 1017.9 |
| 20260505122624 | 10 | 135 | 0.0 | 0.0 | 0.00 | 0.00 | 0.00 | 84 | 1017.6 |
| 20260505122603 | 10 | 135 | 0.0 | 0.0 | 0.00 | 0.00 | 0.00 | 83 | 1017.6 |
| 20260505122142 | 10 | 118 | 0.0 | 0.0 | 0.00 | 0.00 | 0.00 | 84 | 1017.9 |
| 20260505121939 | 10 | 142 | 0.0 | 0.0 | 0.00 | 0.00 | 0.00 | 84 | 1017.9 |
| 20260505121733 | 10 | 134 | 0.0 | 0.0 | 0.00 | 0.00 | 0.00 | 83 | 1017.9 |
| 20260505121529 | 10 | 137 | 0.0 | 0.0 | 0.00 | 0.00 | 0.00 | 83 | 1017.9 |
| 20260505121326 | 10 | 135 | 0.0 | 0.0 | 0.00 | 0.00 | 0.00 | 83 | 1017.6 |
| 20260505121304 | 11 | 130 | 0.0 | 0.0 | 0.00 | 0.00 | 0.00 | 83 | 1017.9 |
| 20260505120842 | 11 | 146 | 0.0 | 0.0 | 0.00 | 0.00 | 0.00 | 83 | 1017.9 |
| 20260505120636 | 11 | 108 | 0.0 | 0.0 | 0.00 | 0.00 | 0.00 | 83 | 1017.9 |
| 20260505120614 | 11 | 132 | 0.0 | 0.0 | 0.00 | 0.00 | 0.00 | 84 | 1017.9 |
| 20260505120158 | 10 | 142 | 0.0 | 0.0 | 0.00 | 0.00 | 0.00 | 84 | 1017.9 |
| 20260505120136 | 10 | 144 | 0.0 | 0.0 | 0.00 | 0.00 | 0.00 | 84 | 1017.9 |
| 20260505115718 | 10 | 142 | 0.0 | 0.0 | 0.00 | 0.00 | 0.00 | 84 | 1017.9 |
| 20260505115513 | 10 | 123 | 0.0 | 0.0 | 0.00 | 0.00 | 0.00 | 84 | 1017.9 |
| 20260505115309 | 10 | 212 | 0.0 | 0.0 | 0.00 | 0.00 | 0.00 | 84 | 1017.6 |
| 20260505115105 | 10 | 224 | 0.0 | 0.0 | 0.00 | 0.00 | 0.00 | 84 | 1017.9 |
| 20260505114902 | 10 | 125 | 0.0 | 0.0 | 0.00 | 0.00 | 0.00 | 84 | 1017.9 |
| 20260505114658 | 10 | 159 | 0.0 | 0.0 | 0.00 | 0.00 | 0.00 | 84 | 1017.6 |
| 20260505114453 | 10 | 141 | 0.0 | 0.0 | 0.00 | 0.00 | 0.00 | 84 | 1017.6 |
| 20260505114432 | 10 | 120 | 0.0 | 0.0 | 0.00 | 0.00 | 0.00 | 85 | 1017.6 |
| 20260505114012 | 10 | 213 | 0.0 | 0.0 | 0.00 | 0.00 | 0.00 | 85 | 1017.9 |
| 20260505113808 | 10 | 225 | 0.0 | 0.0 | 0.00 | 0.00 | 0.00 | 85 | 1017.6 |
| 20260505113746 | 10 | 153 | 0.0 | 0.0 | 0.00 | 0.00 | 0.00 | 85 | 1017.6 |
| 20260505113328 | 10 | 138 | 0.0 | 0.0 | 0.00 | 0.00 | 0.00 | 85 | 1017.6 |
| 20260505113122 | 10 | 131 | 0.0 | 0.0 | 0.00 | 0.00 | 0.00 | 86 | 1017.9 |
| 20260505112916 | 10 | 136 | 0.0 | 0.0 | 0.00 | 0.00 | 0.00 | 86 | 1017.6 |
| 20260505112713 | 10 | 212 | 0.0 | 0.0 | 0.00 | 0.00 | 0.00 | 86 | 1017.6 |
| 20260505112506 | 10 | 184 | 0.0 | 0.0 | 0.00 | 0.00 | 0.00 | 86 | 1017.6 |
| 20260505112444 | 10 | 180 | 0.0 | 0.0 | 0.00 | 0.00 | 0.00 | 86 | 1017.6 |
| 20260505112027 | 10 | 213 | 0.0 | 0.0 | 0.00 | 0.00 | 0.00 | 86 | 1017.9 |
| 20260505112005 | 10 | 215 | 0.0 | 0.0 | 0.00 | 0.00 | 0.00 | 86 | 1017.6 |
| 20260505111542 | 10 | 220 | 0.0 | 0.0 | 0.00 | 0.00 | 0.00 | 86 | 1017.6 |
| 20260505111519 | 9 | 143 | 0.0 | 0.0 | 0.00 | 0.00 | 0.00 | 86 | 1017.6 |
| 20260505111058 | 9 | 226 | 0.0 | 0.0 | 0.00 | 0.00 | 0.00 | 87 | 1017.6 |
| 20260505110855 | 9 | 220 | 0.0 | 0.0 | 0.00 | 0.00 | 0.00 | 87 | 1017.6 |
| 20260505110833 | 9 | 239 | 0.0 | 0.0 | 0.00 | 0.00 | 0.00 | 87 | 1017.6 |
| 20260505110557 | 9 | 216 | 0.0 | 0.0 | 0.00 | 0.00 | 0.00 | 86 | 1017.6 |
| 20260505101951 | 9 | 223 | 0.0 | 0.0 | 0.00 | 0.00 | 0.00 | 86 | 1017.3 |
| 20260505101747 | 9 | 223 | 0.0 | 0.0 | 0.00 | 0.00 | 0.00 | 86 | 1017.3 |
| 20260505101726 | 9 | 218 | 0.0 | 0.0 | 0.00 | 0.00 | 0.00 | 85 | 1017.3 |
| 20260505101306 | 9 | 216 | 0.0 | 0.0 | 0.00 | 0.00 | 0.00 | 85 | 1016.9 |
| 20260505101100 | 9 | 213 | 0.0 | 0.0 | 0.00 | 0.00 | 0.00 | 85 | 1017.3 |
| 20260505100855 | 9 | 223 | 0.0 | 0.0 | 0.00 | 0.00 | 0.00 | 85 | 1017.3 |
| 20260505100833 | 9 | 222 | 0.0 | 0.0 | 0.00 | 0.00 | 0.00 | 85 | 1017.3 |
| 20260505100557 | 9 | 214 | 0.0 | 0.0 | 0.00 | 0.00 | 0.00 | 85 | 1017.3 |
| 20260505100137 | 9 | 220 | 0.0 | 0.0 | 0.00 | 0.00 | 0.00 | 85 | 1017.3 |
| 20260505095934 | 9 | 216 | 0.0 | 0.0 | 0.00 | 0.00 | 0.00 | 85 | 1017.3 |
| 20260505095729 | 9 | 220 | 0.0 | 0.0 | 0.00 | 0.00 | 0.00 | 85 | 1017.3 |
| 20260505095524 | 9 | 219 | 0.0 | 0.0 | 0.00 | 0.00 | 0.00 | 85 | 1016.9 |
| 20260505095321 | 9 | 220 | 0.0 | 0.0 | 0.00 | 0.00 | 0.00 | 85 | 1017.3 |
| 20260505095115 | 9 | 223 | 0.0 | 0.0 | 0.00 | 0.00 | 0.00 | 85 | 1017.3 |
| 20260505094911 | 9 | 215 | 0.0 | 0.0 | 0.00 | 0.00 | 0.00 | 84 | 1016.9 |
| 20260505094849 | 9 | 213 | 0.0 | 0.0 | 0.00 | 0.00 | 0.00 | 85 | 1016.9 |
| 20260505094432 | 10 | 214 | 0.0 | 0.0 | 0.00 | 0.00 | 0.00 | 85 | 1016.9 |
| 20260505094227 | 10 | 214 | 0.0 | 0.0 | 0.00 | 0.00 | 0.00 | 85 | 1017.3 |
| 20260505094024 | 10 | 222 | 0.0 | 0.0 | 0.00 | 0.00 | 0.00 | 85 | 1017.3 |
| 20260505093818 | 10 | 220 | 0.0 | 0.0 | 0.00 | 0.00 | 0.00 | 85 | 1016.9 |
| 20260505093613 | 10 | 213 | 0.0 | 0.0 | 0.00 | 0.00 | 0.00 | 85 | 1017.3 |
| 20260505093409 | 10 | 227 | 0.0 | 0.0 | 0.00 | 0.00 | 0.00 | 85 | 1017.3 |
| 20260505093205 | 10 | 225 | 0.0 | 0.0 | 0.00 | 0.00 | 0.00 | 85 | 1017.3 |
| 20260505093001 | 10 | 215 | 0.0 | 0.0 | 0.00 | 0.00 | 0.00 | 85 | 1017.3 |
| 20260505092757 | 10 | 217 | 0.0 | 0.0 | 0.00 | 0.00 | 0.00 | 85 | 1017.3 |
| 20260505092735 | 10 | 230 | 0.0 | 0.0 | 0.00 | 0.00 | 0.00 | 85 | 1017.3 |
| 20260505092318 | 10 | 223 | 0.0 | 0.0 | 0.00 | 0.00 | 0.00 | 85 | 1017.3 |
| 20260505092256 | 10 | 223 | 0.0 | 0.0 | 0.00 | 0.00 | 0.00 | 85 | 1017.3 |
| 20260505091840 | 10 | 222 | 0.0 | 0.0 | 0.00 | 0.00 | 0.00 | 85 | 1017.3 |
| 20260505091634 | 10 | 222 | 0.0 | 0.0 | 0.00 | 0.00 | 0.00 | 85 | 1017.3 |
| 20260505091430 | 10 | 223 | 0.0 | 0.0 | 0.00 | 0.00 | 0.00 | 85 | 1016.9 |
| 20260505091226 | 10 | 223 | 0.0 | 0.0 | 0.00 | 0.00 | 0.00 | 85 | 1016.9 |
| 20260505091021 | 10 | 223 | 0.0 | 0.0 | 0.00 | 0.00 | 0.00 | 84 | 1016.9 |
| 20260505090813 | 10 | 222 | 0.0 | 0.0 | 0.00 | 0.00 | 0.00 | 84 | 1016.9 |
| 20260505090609 | 10 | 229 | 0.0 | 0.0 | 0.00 | 0.00 | 0.00 | 84 | 1016.9 |
| 20260505090406 | 10 | 223 | 0.0 | 0.0 | 0.00 | 0.00 | 0.00 | 84 | 1017.3 |
| 20260505090202 | 10 | 219 | 0.0 | 0.0 | 0.00 | 0.00 | 0.00 | 84 | 1016.9 |
| 20260505085959 | 10 | 215 | 0.0 | 0.0 | 0.00 | 0.00 | 0.00 | 84 | 1016.9 |
| 20260505085755 | 10 | 218 | 0.0 | 0.0 | 0.00 | 0.00 | 0.00 | 84 | 1016.9 |
| 20260505085733 | 10 | 227 | 0.0 | 0.0 | 0.00 | 0.00 | 0.00 | 84 | 1016.9 |
| 20260505085317 | 10 | 217 | 0.0 | 0.0 | 0.00 | 0.00 | 0.00 | 84 | 1016.9 |
| 20260505085112 | 10 | 223 | 0.0 | 0.0 | 0.00 | 0.00 | 0.00 | 84 | 1016.9 |
| 20260505084907 | 10 | 222 | 0.0 | 0.0 | 0.00 | 0.00 | 0.00 | 84 | 1016.9 |
| 20260505084704 | 10 | 222 | 0.0 | 0.0 | 0.00 | 0.00 | 0.00 | 84 | 1016.9 |
| 20260505084459 | 10 | 220 | 0.0 | 0.0 | 0.00 | 0.00 | 0.00 | 84 | 1016.9 |
| 20260505084255 | 10 | 228 | 0.0 | 0.0 | 0.00 | 0.00 | 0.00 | 84 | 1016.9 |
| 20260505084051 | 10 | 229 | 0.0 | 0.0 | 0.00 | 0.00 | 0.00 | 83 | 1016.9 |
| 20260505083846 | 10 | 214 | 0.0 | 0.0 | 0.00 | 0.00 | 0.00 | 83 | 1016.9 |
| 20260505083642 | 10 | 213 | 0.0 | 0.0 | 0.00 | 0.00 | 0.00 | 83 | 1017.3 |
| 20260505083438 | 10 | 223 | 0.0 | 0.0 | 0.00 | 0.00 | 0.00 | 83 | 1016.9 |
| 20260505083417 | 10 | 215 | 0.0 | 0.0 | 0.00 | 0.00 | 0.00 | 83 | 1016.9 |
| 20260505082959 | 10 | 106 | 0.0 | 0.0 | 0.00 | 0.00 | 0.00 | 83 | 1016.9 |
| 20260505082756 | 10 | 132 | 0.0 | 0.0 | 0.00 | 0.00 | 0.00 | 83 | 1016.9 |
| 20260505082552 | 10 | 129 | 0.0 | 0.0 | 0.00 | 0.00 | 0.00 | 83 | 1016.9 |
| 20260505082348 | 10 | 135 | 0.0 | 0.0 | 0.00 | 0.00 | 0.00 | 83 | 1016.6 |
| 20260505082144 | 10 | 215 | 0.0 | 0.0 | 0.00 | 0.00 | 0.00 | 83 | 1016.9 |
| 20260505082122 | 10 | 226 | 0.0 | 0.0 | 0.00 | 0.00 | 0.00 | 83 | 1016.6 |
| 20260505081706 | 10 | 223 | 0.0 | 0.0 | 0.00 | 0.00 | 0.00 | 83 | 1016.6 |
| 20260505081644 | 10 | 223 | 0.0 | 0.0 | 0.00 | 0.00 | 0.00 | 82 | 1016.6 |
| 20260505081226 | 10 | 228 | 0.0 | 0.0 | 0.00 | 0.00 | 0.00 | 82 | 1016.9 |
| 20260505081022 | 10 | 215 | 0.0 | 0.0 | 0.00 | 0.00 | 0.00 | 82 | 1016.6 |
| 20260505080818 | 10 | 212 | 0.0 | 0.0 | 0.00 | 0.00 | 0.00 | 82 | 1016.9 |
| 20260505080614 | 11 | 207 | 0.0 | 0.0 | 0.00 | 0.00 | 0.00 | 82 | 1016.6 |
| 20260505080553 | 11 | 190 | 0.0 | 0.0 | 0.00 | 0.00 | 0.00 | 82 | 1016.6 |
| 20260505080132 | 11 | 205 | 0.0 | 0.0 | 0.00 | 0.00 | 0.00 | 81 | 1016.6 |
| 20260505075927 | 11 | 216 | 0.0 | 0.0 | 0.00 | 0.00 | 0.00 | 82 | 1016.6 |
| 20260505075723 | 11 | 207 | 0.0 | 0.0 | 0.00 | 0.00 | 0.00 | 81 | 1016.6 |
| 20260505075519 | 11 | 203 | 0.0 | 0.0 | 0.00 | 0.00 | 0.00 | 81 | 1016.6 |
| 20260505075316 | 11 | 188 | 0.0 | 0.0 | 0.00 | 0.00 | 0.00 | 81 | 1016.6 |
| 20260505075254 | 11 | 201 | 0.0 | 0.0 | 0.00 | 0.00 | 0.00 | 81 | 1016.3 |
| 20260505074836 | 11 | 213 | 0.0 | 1.6 | 0.00 | 0.00 | 0.00 | 81 | 1016.6 |
| 20260505074632 | 11 | 202 | 1.6 | 3.2 | 0.00 | 0.00 | 0.00 | 81 | 1016.6 |
| 20260505074428 | 11 | 208 | 1.6 | 3.2 | 0.00 | 0.00 | 0.00 | 81 | 1016.6 |
| 20260505074406 | 11 | 200 | 1.6 | 1.6 | 0.00 | 0.00 | 0.00 | 81 | 1016.6 |
| 20260505073949 | 11 | 191 | 0.0 | 0.0 | 0.00 | 0.00 | 0.00 | 81 | 1016.6 |
| 20260505073927 | 11 | 159 | 0.0 | 0.0 | 0.00 | 0.00 | 0.00 | 81 | 1016.6 |
| 20260505073509 | 11 | 159 | 0.0 | 0.0 | 0.00 | 0.00 | 0.00 | 81 | 1016.3 |
| 20260505073305 | 11 | 188 | 0.0 | 0.0 | 0.00 | 0.00 | 0.00 | 81 | 1016.6 |
| 20260505073101 | 11 | 190 | 0.0 | 0.0 | 0.00 | 0.00 | 0.00 | 81 | 1016.6 |
| 20260505072858 | 11 | 177 | 0.0 | 0.0 | 0.00 | 0.00 | 0.00 | 81 | 1016.3 |
| 20260505072653 | 11 | 204 | 0.0 | 0.0 | 0.00 | 0.00 | 0.00 | 81 | 1016.6 |
| 20260505072449 | 11 | 208 | 0.0 | 0.0 | 0.00 | 0.00 | 0.00 | 81 | 1016.3 |
| 20260505072245 | 11 | 159 | 0.0 | 0.0 | 0.00 | 0.00 | 0.00 | 81 | 1016.3 |
| 20260505072223 | 11 | 161 | 0.0 | 0.0 | 0.00 | 0.00 | 0.00 | 81 | 1016.3 |
| 20260505071805 | 11 | 205 | 0.0 | 0.0 | 0.00 | 0.00 | 0.00 | 80 | 1016.3 |
| 20260505071559 | 11 | 191 | 0.0 | 0.0 | 0.00 | 0.00 | 0.00 | 80 | 1016.3 |
| 20260505071537 | 11 | 175 | 0.0 | 0.0 | 0.00 | 0.00 | 0.00 | 80 | 1016.3 |
| 20260505071119 | 11 | 157 | 1.6 | 3.2 | 0.00 | 0.00 | 0.00 | 80 | 1016.3 |
| 20260505070915 | 11 | 155 | 0.0 | 1.6 | 0.00 | 0.00 | 0.00 | 80 | 1016.3 |
| 20260505070711 | 11 | 183 | 1.6 | 3.2 | 0.00 | 0.00 | 0.00 | 80 | 1016.3 |
| 20260505070649 | 11 | 157 | 0.0 | 1.6 | 0.00 | 0.00 | 0.00 | 80 | 1016.3 |
| 20260505070413 | 11 | 217 | 4.8 | 6.4 | 0.00 | 0.00 | 0.00 | 80 | 1016.3 |
| 20260505065951 | 11 | 148 | 6.4 | 8.0 | 0.00 | 0.00 | 0.00 | 80 | 1016.3 |
| 20260505065746 | 11 | 172 | 3.2 | 3.2 | 0.00 | 0.00 | 0.00 | 80 | 1016.3 |
| 20260505065724 | 11 | 186 | 1.6 | 3.2 | 0.00 | 0.00 | 0.00 | 80 | 1016.3 |
| 20260505065304 | 11 | 204 | 1.6 | 3.2 | 0.00 | 0.00 | 0.00 | 80 | 1016.3 |
| 20260505065059 | 11 | 203 | 1.6 | 3.2 | 0.00 | 0.00 | 0.00 | 79 | 1015.9 |
| 20260505064856 | 11 | 213 | 4.8 | 6.4 | 0.00 | 0.00 | 0.00 | 79 | 1015.9 |
| 20260505064651 | 11 | 191 | 4.8 | 4.8 | 0.00 | 0.00 | 0.00 | 79 | 1015.9 |
| 20260505064446 | 11 | 175 | 0.0 | 1.6 | 0.00 | 0.00 | 0.00 | 79 | 1016.3 |
| 20260505064242 | 11 | 161 | 4.8 | 6.4 | 0.00 | 0.00 | 0.00 | 79 | 1015.9 |
| 20260505064038 | 11 | 187 | 4.8 | 6.4 | 0.00 | 0.00 | 0.00 | 79 | 1015.9 |
| 20260505064016 | 11 | 216 | 1.6 | 3.2 | 0.00 | 0.00 | 0.00 | 79 | 1016.3 |
| 20260505063558 | 11 | 157 | 1.6 | 1.6 | 0.00 | 0.00 | 0.00 | 79 | 1016.3 |
| 20260505063354 | 11 | 185 | 4.8 | 6.4 | 0.00 | 0.00 | 0.00 | 79 | 1015.9 |
| 20260505063150 | 11 | 188 | 4.8 | 6.4 | 0.00 | 0.00 | 0.00 | 79 | 1015.9 |
| 20260505062944 | 11 | 168 | 1.6 | 1.6 | 0.00 | 0.00 | 0.00 | 79 | 1015.9 |
| 20260505062738 | 11 | 191 | 4.8 | 8.0 | 0.00 | 0.00 | 0.00 | 79 | 1015.6 |
| 20260505062534 | 11 | 158 | 4.8 | 6.4 | 0.00 | 0.00 | 0.00 | 78 | 1015.6 |
| 20260505062330 | 12 | 221 | 1.6 | 3.2 | 0.00 | 0.00 | 0.00 | 78 | 1015.6 |
| 20260505062126 | 12 | 200 | 4.8 | 4.8 | 0.00 | 0.00 | 0.00 | 78 | 1015.6 |
| 20260505061919 | 12 | 215 | 0.0 | 1.6 | 0.00 | 0.00 | 0.00 | 78 | 1015.6 |
| 20260505061715 | 12 | 124 | 3.2 | 4.8 | 0.00 | 0.00 | 0.00 | 78 | 1015.9 |
| 20260505061511 | 12 | 186 | 3.2 | 3.2 | 0.00 | 0.00 | 0.00 | 78 | 1015.6 |
| 20260505061308 | 12 | 199 | 3.2 | 3.2 | 0.00 | 0.00 | 0.00 | 78 | 1015.9 |
| 20260505061104 | 12 | 146 | 1.6 | 3.2 | 0.00 | 0.00 | 0.00 | 78 | 1015.6 |
| 20260505060900 | 12 | 161 | 6.4 | 8.0 | 0.00 | 0.00 | 0.00 | 77 | 1015.9 |
| 20260505060656 | 12 | 140 | 3.2 | 3.2 | 0.00 | 0.00 | 0.00 | 77 | 1016.3 |
| 20260505060451 | 12 | 161 | 4.8 | 4.8 | 0.00 | 0.00 | 0.00 | 77 | 1015.6 |
| 20260505060430 | 12 | 139 | 0.0 | 0.0 | 0.00 | 0.00 | 0.00 | 77 | 1015.6 |
| 20260505060010 | 12 | 200 | 4.8 | 4.8 | 0.00 | 0.00 | 0.00 | 77 | 1015.6 |
| 20260505055807 | 12 | 168 | 1.6 | 3.2 | 0.00 | 0.00 | 0.00 | 77 | 1015.6 |
| 20260505055744 | -17 | 0 | 0.0 | 0.0 | 0.00 | 0.00 | 0.00 | 100 | 1015.6 |
| 20260505055322 | -17 | 0 | 0.0 | 0.0 | 0.00 | 0.00 | 0.00 | 100 | 1015.9 |
| 20260505055117 | -17 | 0 | 0.0 | 0.0 | 0.00 | 0.00 | 0.00 | 100 | 1015.6 |
| 20260505054913 | 12 | 175 | 1.6 | 3.2 | 0.00 | 0.00 | 0.00 | 76 | 1015.6 |
| 20260505054710 | 12 | 175 | 1.6 | 3.2 | 0.00 | 0.00 | 0.00 | 76 | 1015.6 |
| 20260505054506 | 12 | 175 | 1.6 | 3.2 | 0.00 | 0.00 | 0.00 | 76 | 1015.6 |
| 20260505054301 | 12 | 175 | 1.6 | 3.2 | 0.00 | 0.00 | 0.00 | 76 | 1015.6 |
| 20260505054057 | 12 | 175 | 1.6 | 3.2 | 0.00 | 0.00 | 0.00 | 76 | 1015.2 |
| 20260505053853 | 12 | 175 | 1.6 | 3.2 | 0.00 | 0.00 | 0.00 | 76 | 1015.6 |
| 20260505053649 | 12 | 129 | 1.6 | 3.2 | 0.00 | 0.00 | 0.00 | 75 | 1015.6 |
| 20260505053445 | 13 | 180 | 3.2 | 6.4 | 0.00 | 0.00 | 0.00 | 75 | 1015.6 |
| 20260505053240 | 13 | 180 | 3.2 | 6.4 | 0.00 | 0.00 | 0.00 | 75 | 1015.6 |
| 20260505053036 | 13 | 159 | 3.2 | 4.8 | 0.00 | 0.00 | 0.00 | 75 | 1015.6 |
| 20260505052833 | 13 | 172 | 0.0 | 1.6 | 0.00 | 0.00 | 0.00 | 75 | 1015.6 |
| 20260505052627 | 13 | 189 | 1.6 | 3.2 | 0.00 | 0.00 | 0.00 | 75 | 1015.6 |
| 20260505052423 | 13 | 189 | 1.6 | 3.2 | 0.00 | 0.00 | 0.00 | 75 | 1015.6 |
| 20260505052401 | 13 | 179 | 4.8 | 4.8 | 0.00 | 0.00 | 0.00 | 75 | 1015.6 |
| 20260505052126 | 13 | 180 | 3.2 | 4.8 | 0.00 | 0.00 | 0.00 | 75 | 1015.6 |
| 20260505051706 | 13 | 180 | 3.2 | 4.8 | 0.00 | 0.00 | 0.00 | 75 | 1015.6 |
| 20260505051459 | 13 | 148 | 1.6 | 3.2 | 0.00 | 0.00 | 0.00 | 74 | 1015.6 |
| 20260505051255 | 13 | 146 | 1.6 | 3.2 | 0.00 | 0.00 | 0.00 | 74 | 1015.6 |
| 20260505051052 | 13 | 181 | 1.6 | 3.2 | 0.00 | 0.00 | 0.00 | 74 | 1015.6 |
| 20260505050847 | 13 | 181 | 1.6 | 3.2 | 0.00 | 0.00 | 0.00 | 74 | 1015.6 |
| 20260505050643 | 13 | 202 | 4.8 | 4.8 | 0.00 | 0.00 | 0.00 | 74 | 1015.6 |
| 20260505050440 | 13 | 202 | 4.8 | 4.8 | 0.00 | 0.00 | 0.00 | 74 | 1015.6 |
| 20260505050418 | 13 | 202 | 4.8 | 4.8 | 0.00 | 0.00 | 0.00 | 74 | 1015.2 |
| 20260505041634 | -17 | 0 | 0.0 | 0.0 | 0.00 | 0.00 | 0.00 | 100 | 1014.9 |
| 20260505041358 | -17 | 0 | 0.0 | 0.0 | 0.00 | 0.00 | 0.00 | 100 | 1014.6 |
| 20260505040940 | -17 | 0 | 0.0 | 0.0 | 0.00 | 0.00 | 0.00 | 100 | 1014.6 |
| 20260505040736 | -17 | 0 | 0.0 | 0.0 | 0.00 | 0.00 | 0.00 | 100 | 1014.6 |
| 20260505040510 | -17 | 0 | 0.0 | 0.0 | 0.00 | 0.00 | 0.00 | 100 | 1014.6 |
| 20260505040051 | -17 | 0 | 0.0 | 0.0 | 0.00 | 0.00 | 0.00 | 100 | 1014.6 |
| 20260505035824 | -17 | 0 | 0.0 | 0.0 | 0.00 | 0.00 | 0.00 | 100 | 1014.6 |
| 20260505035404 | -17 | 0 | 0.0 | 0.0 | 0.00 | 0.00 | 0.00 | 100 | 1014.2 |
| 20260505035200 | -17 | 0 | 0.0 | 0.0 | 0.00 | 0.00 | 0.00 | 100 | 1014.2 |
| 20260505034957 | -17 | 0 | 0.0 | 0.0 | 0.00 | 0.00 | 0.00 | 100 | 1014.2 |
| 20260505034729 | 16 | 139 | 4.8 | 6.4 | 0.00 | 0.00 | 0.00 | 69 | 1014.2 |
| 20260505034309 | 16 | 139 | 4.8 | 6.4 | 0.00 | 0.00 | 0.00 | 69 | 1014.2 |
| 20260505034105 | 16 | 139 | 4.8 | 6.4 | 0.00 | 0.00 | 0.00 | 69 | 1014.2 |
| 20260505034043 | 16 | 139 | 4.8 | 6.4 | 0.00 | 0.00 | 0.00 | 69 | 1014.2 |
| 20260505033627 | 16 | 187 | 4.8 | 6.4 | 0.00 | 0.00 | 0.00 | 68 | 1014.2 |
| 20260505033420 | 16 | 145 | 3.2 | 6.4 | 0.00 | 0.00 | 0.00 | 68 | 1014.2 |
| 20260505033217 | 16 | 145 | 3.2 | 6.4 | 0.00 | 0.00 | 0.00 | 68 | 1014.6 |
| 20260505033155 | 16 | 123 | 4.8 | 8.0 | 0.00 | 0.00 | 0.00 | 68 | 1014.2 |
| 20260505032736 | 16 | 180 | 4.8 | 6.4 | 0.00 | 0.00 | 0.00 | 68 | 1014.2 |
| 20260505032533 | 16 | 162 | 3.2 | 4.8 | 0.00 | 0.00 | 0.00 | 67 | 1014.2 |
| 20260505032307 | 16 | 115 | 1.6 | 3.2 | 0.00 | 0.00 | 0.00 | 67 | 1014.2 |
| 20260505032032 | 16 | 216 | 8.0 | 9.7 | 0.00 | 0.00 | 0.00 | 66 | 1014.2 |
| 20260505031755 | 16 | 216 | 8.0 | 9.7 | 0.00 | 0.00 | 0.00 | 66 | 1013.9 |
| 20260505031337 | -17 | 0 | 0.0 | 0.0 | 0.00 | 0.00 | 0.00 | 100 | 1013.9 |
| 20260505031131 | 17 | 204 | 1.6 | 3.2 | 0.00 | 0.00 | 0.00 | 65 | 1014.2 |
| 20260505030927 | 17 | 204 | 1.6 | 3.2 | 0.00 | 0.00 | 0.00 | 65 | 1014.2 |
| 20260505030723 | 17 | 204 | 1.6 | 3.2 | 0.00 | 0.00 | 0.00 | 65 | 1013.9 |
| 20260505030519 | 17 | 204 | 1.6 | 3.2 | 0.00 | 0.00 | 0.00 | 65 | 1013.9 |
| 20260505030316 | 17 | 204 | 1.6 | 3.2 | 0.00 | 0.00 | 0.00 | 65 | 1013.9 |
| 20260505030110 | -17 | 0 | 0.0 | 0.0 | 0.00 | 0.00 | 0.00 | 100 | 1013.9 |
| 20260505025907 | -17 | 0 | 0.0 | 0.0 | 0.00 | 0.00 | 0.00 | 100 | 1013.5 |
| 20260505025845 | -17 | 0 | 0.0 | 0.0 | 0.00 | 0.00 | 0.00 | 100 | 1013.9 |
| 20260505025425 | -17 | 0 | 0.0 | 0.0 | 0.00 | 0.00 | 0.00 | 100 | 1013.5 |
| 20260505025220 | -17 | 0 | 0.0 | 0.0 | 0.00 | 0.00 | 0.00 | 100 | 1013.5 |
| 20260505025159 | -17 | 0 | 0.0 | 0.0 | 0.00 | 0.00 | 0.00 | 100 | 1013.5 |
| 20260505024741 | -17 | 0 | 0.0 | 0.0 | 0.00 | 0.00 | 0.00 | 100 | 1013.9 |
| 20260505024538 | -17 | 0 | 0.0 | 0.0 | 0.00 | 0.00 | 0.00 | 100 | 1013.5 |
| 20260505024332 | -17 | 0 | 0.0 | 0.0 | 0.00 | 0.00 | 0.00 | 100 | 1013.5 |
| 20260505024128 | -17 | 0 | 0.0 | 0.0 | 0.00 | 0.00 | 0.00 | 100 | 1013.5 |
| 20260505023922 | -17 | 0 | 0.0 | 0.0 | 0.00 | 0.00 | 0.00 | 100 | 1013.5 |
| 20260505023719 | -17 | 0 | 0.0 | 0.0 | 0.00 | 0.00 | 0.00 | 100 | 1013.5 |
| 20260505023515 | -17 | 0 | 0.0 | 0.0 | 0.00 | 0.00 | 0.00 | 100 | 1013.5 |
| 20260505023309 | -17 | 0 | 0.0 | 0.0 | 0.00 | 0.00 | 0.00 | 100 | 1013.5 |
| 20260505023105 | 19 | 219 | 8.0 | 8.0 | 0.00 | 0.00 | 0.00 | 60 | 1013.5 |
| 20260505022901 | 19 | 219 | 8.0 | 8.0 | 0.00 | 0.00 | 0.00 | 60 | 1013.5 |
| 20260505022657 | 19 | 219 | 8.0 | 8.0 | 0.00 | 0.00 | 0.00 | 60 | 1013.5 |
| 20260505022453 | 19 | 219 | 8.0 | 8.0 | 0.00 | 0.00 | 0.00 | 60 | 1013.5 |
| 20260505022249 | 19 | 219 | 8.0 | 8.0 | 0.00 | 0.00 | 0.00 | 60 | 1013.9 |
| 20260505022044 | 19 | 219 | 8.0 | 8.0 | 0.00 | 0.00 | 0.00 | 60 | 1013.5 |
| 20260505021840 | 19 | 197 | 11.3 | 11.3 | 0.00 | 0.00 | 0.00 | 59 | 1013.5 |
| 20260505021634 | 20 | 159 | 12.9 | 16.1 | 0.00 | 0.00 | 0.00 | 58 | 1013.5 |
| 20260505021424 | 20 | 159 | 12.9 | 16.1 | 0.00 | 0.00 | 0.00 | 58 | 1013.5 |
| 20260505021221 | 20 | 159 | 12.9 | 16.1 | 0.00 | 0.00 | 0.00 | 58 | 1013.5 |
| 20260505021016 | 20 | 159 | 12.9 | 16.1 | 0.00 | 0.00 | 0.00 | 58 | 1013.5 |
| 20260505020811 | 20 | 201 | 12.9 | 16.1 | 0.00 | 0.00 | 0.00 | 58 | 1013.5 |
| 20260505020749 | -17 | 0 | 0.0 | 0.0 | 0.00 | 0.00 | 0.00 | 100 | 1013.5 |
| 20260505020514 | -17 | 0 | 0.0 | 0.0 | 0.00 | 0.00 | 0.00 | 100 | 1013.5 |
| 20260505020056 | -17 | 0 | 0.0 | 0.0 | 0.00 | 0.00 | 0.00 | 100 | 1013.5 |
| 20260505015850 | -17 | 0 | 0.0 | 0.0 | 0.00 | 0.00 | 0.00 | 100 | 1013.5 |
| 20260505015644 | -17 | 0 | 0.0 | 0.0 | 0.00 | 0.00 | 0.00 | 100 | 1013.5 |
| 20260505015418 | -17 | 0 | 0.0 | 0.0 | 0.00 | 0.00 | 0.00 | 100 | 1013.5 |
| 20260505015001 | -17 | 0 | 0.0 | 0.0 | 0.00 | 0.00 | 0.00 | 100 | 1013.5 |
| 20260505014732 | -17 | 0 | 0.0 | 0.0 | 0.00 | 0.00 | 0.00 | 100 | 1013.5 |
| 20260505014310 | 22 | 201 | 9.7 | 11.3 | 0.00 | 0.00 | 0.00 | 54 | 1013.5 |
| 20260505014102 | 22 | 201 | 9.7 | 11.3 | 0.00 | 0.00 | 0.00 | 54 | 1013.2 |
| 20260505013857 | 22 | 201 | 9.7 | 11.3 | 0.00 | 0.00 | 0.00 | 54 | 1013.5 |
| 20260505013648 | 22 | 201 | 9.7 | 11.3 | 0.00 | 0.00 | 0.00 | 54 | 1013.5 |
| 20260505013442 | 22 | 201 | 9.7 | 11.3 | 0.00 | 0.00 | 0.00 | 54 | 1013.5 |
| 20260505013235 | 22 | 196 | 8.0 | 11.3 | 0.00 | 0.00 | 0.00 | 54 | 1013.5 |
| 20260505013031 | -17 | 0 | 0.0 | 0.0 | 0.00 | 0.00 | 0.00 | 100 | 1013.5 |
| 20260505012826 | -17 | 0 | 0.0 | 0.0 | 0.00 | 0.00 | 0.00 | 100 | 1013.5 |
| 20260505012619 | -17 | 0 | 0.0 | 0.0 | 0.00 | 0.00 | 0.00 | 100 | 1013.5 |
| 20260505012415 | -17 | 0 | 0.0 | 0.0 | 0.00 | 0.00 | 0.00 | 100 | 1013.5 |
| 20260505012211 | -17 | 0 | 0.0 | 0.0 | 0.00 | 0.00 | 0.00 | 100 | 1013.5 |
| 20260505012003 | -17 | 0 | 0.0 | 0.0 | 0.00 | 0.00 | 0.00 | 100 | 1013.5 |
| 20260505011758 | 23 | 194 | 4.8 | 6.4 | 0.00 | 0.00 | 0.00 | 53 | 1013.9 |
| 20260505011554 | 23 | 194 | 4.8 | 6.4 | 0.00 | 0.00 | 0.00 | 53 | 1013.5 |
| 20260505011348 | 23 | 194 | 4.8 | 6.4 | 0.00 | 0.00 | 0.00 | 53 | 1013.5 |
| 20260505011142 | 23 | 194 | 4.8 | 6.4 | 0.00 | 0.00 | 0.00 | 53 | 1013.5 |
| 20260505010938 | 23 | 194 | 4.8 | 6.4 | 0.00 | 0.00 | 0.00 | 53 | 1013.5 |
| 20260505010734 | 23 | 153 | 11.3 | 16.1 | 0.00 | 0.00 | 0.00 | 53 | 1013.5 |
| 20260505010529 | 23 | 152 | 8.0 | 11.3 | 0.00 | 0.00 | 0.00 | 53 | 1013.5 |
| 20260505010325 | 23 | 152 | 8.0 | 11.3 | 0.00 | 0.00 | 0.00 | 53 | 1013.5 |
| 20260505010119 | 23 | 223 | 8.0 | 11.3 | 0.00 | 0.00 | 0.00 | 54 | 1013.5 |
| 20260505005913 | 23 | 186 | 4.8 | 6.4 | 0.00 | 0.00 | 0.00 | 54 | 1013.5 |
| 20260505005852 | 23 | 186 | 4.8 | 6.4 | 0.00 | 0.00 | 0.00 | 54 | 1013.5 |
| 20260505005431 | 23 | 186 | 4.8 | 6.4 | 0.00 | 0.00 | 0.00 | 54 | 1013.5 |
| 20260505005227 | 23 | 203 | 12.9 | 16.1 | 0.00 | 0.00 | 0.00 | 53 | 1013.5 |
| 20260505005021 | 23 | 203 | 12.9 | 16.1 | 0.00 | 0.00 | 0.00 | 53 | 1013.5 |
| 20260505004815 | 23 | 224 | 4.8 | 8.0 | 0.00 | 0.00 | 0.00 | 54 | 1013.5 |
| 20260505004609 | 23 | 220 | 8.0 | 11.3 | 0.00 | 0.00 | 0.00 | 54 | 1013.5 |
| 20260505004403 | 23 | 180 | 11.3 | 14.5 | 0.00 | 0.00 | 0.00 | 54 | 1013.5 |
| 20260505004159 | 23 | 222 | 6.4 | 8.0 | 0.00 | 0.00 | 0.00 | 55 | 1013.5 |
| 20260505003952 | 23 | 131 | 8.0 | 11.3 | 0.00 | 0.00 | 0.00 | 55 | 1013.5 |
| 20260505003748 | 23 | 131 | 8.0 | 11.3 | 0.00 | 0.00 | 0.00 | 55 | 1013.5 |
| 20260505003541 | 23 | 157 | 11.3 | 12.9 | 0.00 | 0.00 | 0.00 | 55 | 1013.5 |
| 20260505003337 | 23 | 210 | 11.3 | 14.5 | 0.00 | 0.00 | 0.00 | 55 | 1013.5 |
| 20260505003127 | 23 | 210 | 11.3 | 14.5 | 0.00 | 0.00 | 0.00 | 55 | 1013.5 |
| 20260505002922 | 23 | 210 | 11.3 | 14.5 | 0.00 | 0.00 | 0.00 | 55 | 1013.5 |
| 20260505002712 | 23 | 154 | 8.0 | 11.3 | 0.00 | 0.00 | 0.00 | 55 | 1013.9 |
| 20260505002508 | 23 | 168 | 6.4 | 9.7 | 0.00 | 0.00 | 0.00 | 54 | 1013.5 |
| 20260505002304 | 23 | 175 | 3.2 | 4.8 | 0.00 | 0.00 | 0.00 | 55 | 1013.5 |
| 20260505002241 | 23 | 189 | 9.7 | 11.3 | 0.00 | 0.00 | 0.00 | 55 | 1013.5 |
| 20260505001819 | 23 | 193 | 12.9 | 16.1 | 0.00 | 0.00 | 0.00 | 54 | 1013.5 |
| 20260505001612 | 23 | 158 | 12.9 | 16.1 | 0.00 | 0.00 | 0.00 | 54 | 1013.9 |
| 20260505001405 | 23 | 190 | 3.2 | 8.0 | 0.00 | 0.00 | 0.00 | 55 | 1013.5 |
| 20260505001158 | 23 | 168 | 4.8 | 4.8 | 0.00 | 0.00 | 0.00 | 55 | 1013.5 |
| 20260505000954 | 23 | 207 | 14.5 | 16.1 | 0.00 | 0.00 | 0.00 | 54 | 1013.5 |
| 20260505000750 | 23 | 176 | 9.7 | 11.3 | 0.00 | 0.00 | 0.00 | 55 | 1013.5 |
| 20260505000727 | 23 | 164 | 8.0 | 11.3 | 0.00 | 0.00 | 0.00 | 53 | 1013.9 |
| 20260505000310 | 23 | 164 | 8.0 | 11.3 | 0.00 | 0.00 | 0.00 | 53 | 1013.5 |
| 20260505000105 | 23 | 214 | 8.0 | 11.3 | 0.00 | 0.00 | 0.00 | 53 | 1013.9 |
| 20260504235901 | 23 | 135 | 9.7 | 12.9 | 0.00 | 0.00 | 0.00 | 53 | 1013.9 |
| 20260504235657 | 23 | 135 | 9.7 | 12.9 | 0.00 | 0.00 | 0.00 | 53 | 1013.9 |
| 20260504235453 | 23 | 176 | 6.4 | 11.3 | 0.00 | 0.00 | 0.00 | 53 | 1013.9 |
| 20260504235246 | 23 | 176 | 6.4 | 11.3 | 0.00 | 0.00 | 0.00 | 53 | 1013.9 |
| 20260504235040 | 23 | 180 | 8.0 | 9.7 | 0.00 | 0.00 | 0.00 | 54 | 1013.9 |
| 20260504234836 | 23 | 180 | 8.0 | 9.7 | 0.00 | 0.00 | 0.00 | 54 | 1013.9 |
| 20260504234632 | 23 | 140 | 14.5 | 19.3 | 0.00 | 0.00 | 0.00 | 54 | 1013.9 |
| 20260504234424 | 23 | 140 | 14.5 | 19.3 | 0.00 | 0.00 | 0.00 | 54 | 1013.9 |
| 20260504234214 | -17 | 0 | 0.0 | 0.0 | 0.00 | 0.00 | 0.00 | 100 | 1013.9 |
| 20260504234151 | -17 | 0 | 0.0 | 0.0 | 0.00 | 0.00 | 0.00 | 100 | 1013.9 |
| 20260504233733 | -17 | 0 | 0.0 | 0.0 | 0.00 | 0.00 | 0.00 | 100 | 1013.9 |
| 20260504233529 | -17 | 0 | 0.0 | 0.0 | 0.00 | 0.00 | 0.00 | 100 | 1014.2 |
| 20260504233325 | -17 | 0 | 0.0 | 0.0 | 0.00 | 0.00 | 0.00 | 100 | 1013.9 |
| 20260504233119 | -17 | 0 | 0.0 | 0.0 | 0.00 | 0.00 | 0.00 | 100 | 1013.9 |
| 20260504232915 | -17 | 0 | 0.0 | 0.0 | 0.00 | 0.00 | 0.00 | 100 | 1013.9 |
| 20260504232711 | -17 | 0 | 0.0 | 0.0 | 0.00 | 0.00 | 0.00 | 100 | 1013.9 |
| 20260504232507 | 23 | 198 | 6.4 | 8.0 | 0.00 | 0.00 | 0.00 | 54 | 1014.2 |
| 20260504232303 | 23 | 198 | 6.4 | 8.0 | 0.00 | 0.00 | 0.00 | 54 | 1013.9 |
| 20260504232057 | 23 | 198 | 6.4 | 8.0 | 0.00 | 0.00 | 0.00 | 54 | 1013.9 |
| 20260504231853 | 23 | 198 | 6.4 | 8.0 | 0.00 | 0.00 | 0.00 | 54 | 1013.9 |
| 20260504231649 | 23 | 198 | 6.4 | 8.0 | 0.00 | 0.00 | 0.00 | 54 | 1013.9 |
| 20260504231445 | 23 | 198 | 6.4 | 8.0 | 0.00 | 0.00 | 0.00 | 54 | 1014.2 |
| 20260504231242 | 23 | 179 | 6.4 | 8.0 | 0.00 | 0.00 | 0.00 | 54 | 1014.2 |
| 20260504231037 | 23 | 146 | 8.0 | 11.3 | 0.00 | 0.00 | 0.00 | 54 | 1013.9 |
| 20260504230834 | 23 | 108 | 9.7 | 11.3 | 0.00 | 0.00 | 0.00 | 55 | 1014.2 |
| 20260504230622 | 23 | 178 | 6.4 | 8.0 | 0.00 | 0.00 | 0.00 | 54 | 1013.9 |
| 20260504230418 | 23 | 123 | 11.3 | 16.1 | 0.00 | 0.00 | 0.00 | 55 | 1014.2 |
| 20260504230214 | 22 | 182 | 9.7 | 11.3 | 0.00 | 0.00 | 0.00 | 54 | 1013.9 |
| 20260504230010 | 22 | 182 | 9.7 | 11.3 | 0.00 | 0.00 | 0.00 | 54 | 1013.9 |
| 20260504225949 | 22 | 139 | 8.0 | 11.3 | 0.00 | 0.00 | 0.00 | 55 | 1014.2 |
| 20260504225510 | 22 | 139 | 8.0 | 11.3 | 0.00 | 0.00 | 0.00 | 55 | 1014.2 |
| 20260504225027 | 23 | 180 | 9.7 | 14.5 | 0.00 | 0.00 | 0.00 | 54 | 1014.2 |
| 20260504224609 | 23 | 113 | 4.8 | 11.3 | 0.00 | 0.00 | 0.00 | 55 | 1014.6 |
| 20260504224403 | 22 | 123 | 9.7 | 12.9 | 0.00 | 0.00 | 0.00 | 54 | 1014.2 |
| 20260504224158 | 22 | 123 | 9.7 | 12.9 | 0.00 | 0.00 | 0.00 | 54 | 1014.2 |
| 20260504223954 | 23 | 128 | 11.3 | 14.5 | 0.00 | 0.00 | 0.00 | 54 | 1014.2 |
| 20260504223750 | 22 | 131 | 3.2 | 4.8 | 0.00 | 0.00 | 0.00 | 54 | 1014.6 |
| 20260504223546 | 22 | 186 | 9.7 | 12.9 | 0.00 | 0.00 | 0.00 | 56 | 1014.6 |
| 20260504223341 | 22 | 186 | 9.7 | 12.9 | 0.00 | 0.00 | 0.00 | 56 | 1014.6 |
| 20260504223135 | 22 | 97 | 8.0 | 9.7 | 0.00 | 0.00 | 0.00 | 55 | 1014.6 |
| 20260504222930 | 22 | 123 | 3.2 | 4.8 | 0.00 | 0.00 | 0.00 | 55 | 1014.6 |
| 20260504222727 | 22 | 168 | 8.0 | 9.7 | 0.00 | 0.00 | 0.00 | 54 | 1014.6 |
| 20260504222520 | 22 | 174 | 4.8 | 6.4 | 0.00 | 0.00 | 0.00 | 55 | 1014.6 |
| 20260504222316 | 22 | 121 | 9.7 | 12.9 | 0.00 | 0.00 | 0.00 | 55 | 1014.6 |
| 20260504222112 | 22 | 95 | 9.7 | 11.3 | 0.00 | 0.00 | 0.00 | 55 | 1014.6 |
| 20260504221906 | 22 | 152 | 4.8 | 6.4 | 0.00 | 0.00 | 0.00 | 55 | 1014.6 |
| 20260504221700 | 22 | 137 | 0.0 | 1.6 | 0.00 | 0.00 | 0.00 | 55 | 1014.6 |
| 20260504221456 | 22 | 137 | 0.0 | 1.6 | 0.00 | 0.00 | 0.00 | 55 | 1014.6 |
| 20260504221248 | 22 | 137 | 0.0 | 1.6 | 0.00 | 0.00 | 0.00 | 55 | 1014.6 |
| 20260504221044 | 22 | 94 | 6.4 | 8.0 | 0.00 | 0.00 | 0.00 | 56 | 1014.6 |
| 20260504220840 | 22 | 190 | 4.8 | 6.4 | 0.00 | 0.00 | 0.00 | 56 | 1014.6 |
| 20260504220637 | 22 | 198 | 8.0 | 11.3 | 0.00 | 0.00 | 0.00 | 55 | 1014.6 |
| 20260504220429 | 22 | 198 | 8.0 | 11.3 | 0.00 | 0.00 | 0.00 | 55 | 1014.6 |
| 20260504220225 | 21 | 220 | 6.4 | 8.0 | 0.00 | 0.00 | 0.00 | 57 | 1014.6 |
| 20260504220021 | 21 | 136 | 4.8 | 6.4 | 0.00 | 0.00 | 0.00 | 56 | 1014.6 |
| 20260504215816 | 21 | 141 | 6.4 | 8.0 | 0.00 | 0.00 | 0.00 | 56 | 1014.9 |
| 20260504215613 | 22 | 169 | 8.0 | 11.3 | 0.00 | 0.00 | 0.00 | 56 | 1014.9 |
| 20260504215406 | 22 | 142 | 11.3 | 16.1 | 0.00 | 0.00 | 0.00 | 56 | 1014.6 |
| 20260504215203 | 21 | 67 | 11.3 | 11.3 | 0.00 | 0.00 | 0.00 | 56 | 1014.9 |
| 20260504215141 | 21 | 108 | 4.8 | 8.0 | 0.00 | 0.00 | 0.00 | 57 | 1014.9 |
| 20260504214720 | 21 | 104 | 4.8 | 4.8 | 0.00 | 0.00 | 0.00 | 57 | 1014.6 |
| 20260504214516 | 21 | 86 | 6.4 | 9.7 | 0.00 | 0.00 | 0.00 | 56 | 1014.9 |
| 20260504214312 | 21 | 115 | 9.7 | 12.9 | 0.00 | 0.00 | 0.00 | 56 | 1015.2 |
| 20260504214248 | 21 | 136 | 4.8 | 8.0 | 0.00 | 0.00 | 0.00 | 57 | 1014.9 |
| 20260504214012 | 21 | 110 | 8.0 | 9.7 | 0.00 | 0.00 | 0.00 | 56 | 1015.2 |
| 20260504213553 | 21 | 159 | 9.7 | 11.3 | 0.00 | 0.00 | 0.00 | 57 | 1014.9 |
| 20260504213349 | 21 | 165 | 3.2 | 6.4 | 0.00 | 0.00 | 0.00 | 58 | 1014.9 |
| 20260504213145 | 21 | 97 | 11.3 | 16.1 | 0.00 | 0.00 | 0.00 | 57 | 1015.2 |
| 20260504212939 | 21 | 99 | 14.5 | 17.7 | 0.00 | 0.00 | 0.00 | 57 | 1014.9 |
| 20260504212917 | 21 | 164 | 3.2 | 4.8 | 0.00 | 0.00 | 0.00 | 57 | 1015.2 |
| 20260504212457 | 21 | 126 | 3.2 | 3.2 | 0.00 | 0.00 | 0.00 | 57 | 1014.9 |
| 20260504212253 | 21 | 145 | 4.8 | 4.8 | 0.00 | 0.00 | 0.00 | 57 | 1015.2 |
| 20260504212232 | 21 | 126 | 11.3 | 16.1 | 0.00 | 0.00 | 0.00 | 58 | 1015.2 |
| 20260504211815 | 21 | 131 | 1.6 | 3.2 | 0.00 | 0.00 | 0.00 | 59 | 1015.2 |
| 20260504211612 | 20 | 186 | 8.0 | 8.0 | 0.00 | 0.00 | 0.00 | 59 | 1015.2 |
| 20260504211550 | 20 | 137 | 4.8 | 4.8 | 0.00 | 0.00 | 0.00 | 59 | 1015.6 |
| 20260504211128 | 20 | 137 | 4.8 | 4.8 | 0.00 | 0.00 | 0.00 | 59 | 1015.6 |
| 20260504210901 | 21 | 30 | 8.0 | 11.3 | 0.00 | 0.00 | 0.00 | 58 | 1015.6 |
| 20260504210625 | 21 | 30 | 8.0 | 11.3 | 0.00 | 0.00 | 0.00 | 58 | 1015.6 |
| 20260504210204 | 20 | 109 | 0.0 | 1.6 | 0.00 | 0.00 | 0.00 | 57 | 1015.6 |
| 20260504210142 | 20 | 109 | 0.0 | 1.6 | 0.00 | 0.00 | 0.00 | 57 | 1015.6 |
| 20260504205704 | 20 | 171 | 3.2 | 8.0 | 0.00 | 0.00 | 0.00 | 60 | 1015.6 |
| 20260504205244 | 20 | 169 | 9.7 | 11.3 | 0.00 | 0.00 | 0.00 | 57 | 1015.6 |
| 20260504205222 | 20 | 150 | 9.7 | 11.3 | 0.00 | 0.00 | 0.00 | 58 | 1015.6 |
| 20260504204804 | 20 | 77 | 4.8 | 8.0 | 0.00 | 0.00 | 0.00 | 59 | 1015.6 |
| 20260504204743 | 20 | 77 | 4.8 | 8.0 | 0.00 | 0.00 | 0.00 | 59 | 1015.6 |
| 20260504204322 | 20 | 77 | 4.8 | 8.0 | 0.00 | 0.00 | 0.00 | 59 | 1015.6 |
| 20260504204118 | 20 | 77 | 4.8 | 8.0 | 0.00 | 0.00 | 0.00 | 59 | 1015.9 |
| 20260504203912 | 20 | 77 | 4.8 | 8.0 | 0.00 | 0.00 | 0.00 | 59 | 1015.6 |
| 20260504203709 | 20 | 162 | 9.7 | 11.3 | 0.00 | 0.00 | 0.00 | 59 | 1015.6 |
| 20260504203647 | 20 | 221 | 3.2 | 6.4 | 0.00 | 0.00 | 0.00 | 59 | 1015.9 |
| 20260504203225 | 20 | 221 | 3.2 | 6.4 | 0.00 | 0.00 | 0.00 | 59 | 1015.6 |
| 20260504203021 | 20 | 221 | 3.2 | 6.4 | 0.00 | 0.00 | 0.00 | 59 | 1015.6 |
| 20260504202815 | 19 | 185 | 6.4 | 8.0 | 0.00 | 0.00 | 0.00 | 61 | 1015.9 |
| 20260504202609 | 19 | 185 | 6.4 | 8.0 | 0.00 | 0.00 | 0.00 | 61 | 1015.9 |
| 20260504202405 | 19 | 156 | 0.0 | 3.2 | 0.00 | 0.00 | 0.00 | 59 | 1015.9 |
| 20260504202201 | 19 | 156 | 0.0 | 3.2 | 0.00 | 0.00 | 0.00 | 59 | 1015.9 |
| 20260504201958 | 19 | 156 | 0.0 | 3.2 | 0.00 | 0.00 | 0.00 | 59 | 1016.3 |
| 20260504201751 | 19 | 156 | 0.0 | 3.2 | 0.00 | 0.00 | 0.00 | 59 | 1015.9 |
| 20260504201545 | 20 | 156 | 4.8 | 8.0 | 0.00 | 0.00 | 0.00 | 59 | 1015.9 |
| 20260504201336 | 20 | 93 | 6.4 | 8.0 | 0.00 | 0.00 | 0.00 | 59 | 1015.9 |
| 20260504201311 | 20 | 130 | 6.4 | 9.7 | 0.00 | 0.00 | 0.00 | 60 | 1015.9 |
| 20260504200854 | 19 | 101 | 4.8 | 8.0 | 0.00 | 0.00 | 0.00 | 60 | 1015.9 |
| 20260504200649 | 19 | 107 | 6.4 | 8.0 | 0.00 | 0.00 | 0.00 | 60 | 1015.9 |
| 20260504200445 | 19 | 123 | 6.4 | 9.7 | 0.00 | 0.00 | 0.00 | 60 | 1016.3 |
| 20260504200239 | 19 | 70 | 3.2 | 8.0 | 0.00 | 0.00 | 0.00 | 61 | 1015.9 |
| 20260504200033 | 19 | 215 | 3.2 | 6.4 | 0.00 | 0.00 | 0.00 | 60 | 1016.3 |
| 20260504195827 | 19 | 231 | 4.8 | 4.8 | 0.00 | 0.00 | 0.00 | 58 | 1016.3 |
| 20260504195617 | 19 | 168 | 4.8 | 8.0 | 0.00 | 0.00 | 0.00 | 60 | 1015.9 |
| 20260504195412 | 18 | 106 | 1.6 | 3.2 | 0.00 | 0.00 | 0.00 | 61 | 1015.9 |
| 20260504195207 | 19 | 55 | 3.2 | 4.8 | 0.00 | 0.00 | 0.00 | 60 | 1016.3 |
| 20260504195003 | 18 | 115 | 3.2 | 4.8 | 0.00 | 0.00 | 0.00 | 60 | 1015.9 |
| 20260504194941 | 18 | 149 | 6.4 | 8.0 | 0.00 | 0.00 | 0.00 | 61 | 1015.9 |
| 20260504194524 | 18 | 150 | 3.2 | 3.2 | 0.00 | 0.00 | 0.00 | 62 | 1016.3 |
| 20260504194502 | 18 | 143 | 8.0 | 9.7 | 0.00 | 0.00 | 0.00 | 61 | 1016.3 |
| 20260504194042 | 18 | 106 | 8.0 | 8.0 | 0.00 | 0.00 | 0.00 | 63 | 1016.3 |
| 20260504193838 | 18 | 95 | 4.8 | 4.8 | 0.00 | 0.00 | 0.00 | 62 | 1016.3 |
| 20260504193634 | 18 | 155 | 1.6 | 3.2 | 0.00 | 0.00 | 0.00 | 62 | 1016.3 |
| 20260504193610 | 18 | 135 | 8.0 | 9.7 | 0.00 | 0.00 | 0.00 | 63 | 1016.3 |
| 20260504193151 | 18 | 135 | 8.0 | 9.7 | 0.00 | 0.00 | 0.00 | 63 | 1016.3 |
| 20260504192947 | 18 | 115 | 11.3 | 14.5 | 0.00 | 0.00 | 0.00 | 62 | 1016.3 |
| 20260504192744 | 18 | 115 | 11.3 | 14.5 | 0.00 | 0.00 | 0.00 | 62 | 1016.3 |
| 20260504192538 | 17 | 145 | 4.8 | 6.4 | 0.00 | 0.00 | 0.00 | 64 | 1016.3 |
| 20260504192334 | 17 | 123 | 4.8 | 8.0 | 0.00 | 0.00 | 0.00 | 63 | 1016.3 |
| 20260504192312 | 17 | 108 | 4.8 | 4.8 | 0.00 | 0.00 | 0.00 | 63 | 1016.3 |
| 20260504191854 | 17 | 74 | 4.8 | 8.0 | 0.00 | 0.00 | 0.00 | 64 | 1016.3 |
| 20260504191651 | 17 | 123 | 3.2 | 3.2 | 0.00 | 0.00 | 0.00 | 64 | 1016.3 |
| 20260504191448 | 17 | 195 | 9.7 | 11.3 | 0.00 | 0.00 | 0.00 | 65 | 1016.3 |
| 20260504191243 | 17 | 177 | 6.4 | 9.7 | 0.00 | 0.00 | 0.00 | 66 | 1016.3 |
| 20260504191040 | 17 | 142 | 4.8 | 6.4 | 0.00 | 0.00 | 0.00 | 65 | 1016.6 |
| 20260504190836 | 17 | 123 | 6.4 | 11.3 | 0.00 | 0.00 | 0.00 | 65 | 1016.3 |
| 20260504190628 | 17 | 96 | 0.0 | 1.6 | 0.00 | 0.00 | 0.00 | 65 | 1016.6 |
| 20260504190423 | 17 | 131 | 8.0 | 9.7 | 0.00 | 0.00 | 0.00 | 64 | 1016.6 |
| 20260504190401 | 17 | 107 | 6.4 | 8.0 | 0.00 | 0.00 | 0.00 | 66 | 1016.6 |
| 20260504185943 | 16 | 151 | 4.8 | 8.0 | 0.00 | 0.00 | 0.00 | 66 | 1016.6 |
| 20260504185740 | 16 | 55 | 6.4 | 8.0 | 0.00 | 0.00 | 0.00 | 65 | 1016.6 |
| 20260504185534 | 16 | 138 | 3.2 | 4.8 | 0.00 | 0.00 | 0.00 | 65 | 1016.6 |
| 20260504185330 | -17 | 0 | 0.0 | 0.0 | 0.00 | 0.00 | 0.00 | 100 | 1016.6 |
| 20260504185123 | -17 | 0 | 0.0 | 0.0 | 0.00 | 0.00 | 0.00 | 100 | 1016.6 |
| 20260504184918 | -17 | 0 | 0.0 | 0.0 | 0.00 | 0.00 | 0.00 | 100 | 1016.6 |
| 20260504184856 | -17 | 0 | 0.0 | 0.0 | 0.00 | 0.00 | 0.00 | 100 | 1016.6 |
| 20260504184621 | -17 | 0 | 0.0 | 0.0 | 0.00 | 0.00 | 0.00 | 100 | 1016.6 |
| 20260504184201 | 15 | 125 | 6.4 | 9.7 | 0.00 | 0.00 | 0.00 | 70 | 1016.6 |
| 20260504183957 | 15 | 125 | 6.4 | 9.7 | 0.00 | 0.00 | 0.00 | 70 | 1016.3 |
| 20260504183753 | 15 | 125 | 6.4 | 9.7 | 0.00 | 0.00 | 0.00 | 70 | 1016.6 |
| 20260504183548 | 15 | 125 | 6.4 | 9.7 | 0.00 | 0.00 | 0.00 | 70 | 1016.6 |
| 20260504183344 | 15 | 125 | 6.4 | 9.7 | 0.00 | 0.00 | 0.00 | 70 | 1016.6 |
| 20260504183119 | -17 | 0 | 0.0 | 0.0 | 0.00 | 0.00 | 0.00 | 100 | 1016.6 |
| 20260504182843 | -17 | 0 | 0.0 | 0.0 | 0.00 | 0.00 | 0.00 | 100 | 1016.6 |
| 20260504182424 | -17 | 0 | 0.0 | 0.0 | 0.00 | 0.00 | 0.00 | 100 | 1016.6 |
| 20260504182220 | -17 | 0 | 0.0 | 0.0 | 0.00 | 0.00 | 0.00 | 100 | 1016.6 |
| 20260504182016 | -17 | 0 | 0.0 | 0.0 | 0.00 | 0.00 | 0.00 | 100 | 1016.9 |
| 20260504181955 | -17 | 0 | 0.0 | 0.0 | 0.00 | 0.00 | 0.00 | 100 | 1016.6 |
| 20260504181535 | -17 | 0 | 0.0 | 0.0 | 0.00 | 0.00 | 0.00 | 100 | 1016.6 |
| 20260504181331 | -17 | 0 | 0.0 | 0.0 | 0.00 | 0.00 | 0.00 | 100 | 1016.6 |
| 20260504181127 | -17 | 0 | 0.0 | 0.0 | 0.00 | 0.00 | 0.00 | 100 | 1016.6 |
| 20260504180923 | -17 | 0 | 0.0 | 0.0 | 0.00 | 0.00 | 0.00 | 100 | 1016.6 |
| 20260504180718 | -17 | 0 | 0.0 | 0.0 | 0.00 | 0.00 | 0.00 | 100 | 1016.6 |
| 20260504180514 | -17 | 0 | 0.0 | 0.0 | 0.00 | 0.00 | 0.00 | 100 | 1016.6 |
| 20260504180310 | -17 | 0 | 0.0 | 0.0 | 0.00 | 0.00 | 0.00 | 100 | 1016.6 |
| 20260504180246 | -17 | 0 | 0.0 | 0.0 | 0.00 | 0.00 | 0.00 | 100 | 1016.6 |
| 20260504175828 | -17 | 0 | 0.0 | 0.0 | 0.00 | 0.00 | 0.00 | 100 | 1016.6 |
| 20260504175625 | -17 | 0 | 0.0 | 0.0 | 0.00 | 0.00 | 0.00 | 100 | 1016.6 |
| 20260504175421 | -17 | 0 | 0.0 | 0.0 | 0.00 | 0.00 | 0.00 | 100 | 1016.6 |
| 20260504175217 | -17 | 0 | 0.0 | 0.0 | 0.00 | 0.00 | 0.00 | 100 | 1016.6 |
| 20260504175012 | -17 | 0 | 0.0 | 0.0 | 0.00 | 0.00 | 0.00 | 100 | 1016.6 |
| 20260504174808 | 14 | 152 | 8.0 | 9.7 | 0.00 | 0.00 | 0.00 | 73 | 1016.3 |
| 20260504174603 | 14 | 152 | 8.0 | 9.7 | 0.00 | 0.00 | 0.00 | 73 | 1016.3 |
| 20260504174400 | 14 | 152 | 8.0 | 9.7 | 0.00 | 0.00 | 0.00 | 73 | 1016.6 |
| 20260504174156 | 14 | 152 | 8.0 | 9.7 | 0.00 | 0.00 | 0.00 | 73 | 1016.6 |
| 20260504173952 | 14 | 152 | 8.0 | 9.7 | 0.00 | 0.00 | 0.00 | 73 | 1016.6 |
| 20260504173748 | -17 | 0 | 0.0 | 0.0 | 0.00 | 0.00 | 0.00 | 100 | 1016.3 |
| 20260504173542 | -17 | 0 | 0.0 | 0.0 | 0.00 | 0.00 | 0.00 | 100 | 1016.6 |
| 20260504173520 | 14 | 125 | 8.0 | 11.3 | 0.00 | 0.00 | 0.00 | 73 | 1016.3 |
| 20260504173104 | 14 | 125 | 8.0 | 11.3 | 0.00 | 0.00 | 0.00 | 73 | 1016.6 |
| 20260504172900 | 14 | 125 | 8.0 | 11.3 | 0.00 | 0.00 | 0.00 | 73 | 1016.3 |
| 20260504172656 | 14 | 125 | 8.0 | 11.3 | 0.00 | 0.00 | 0.00 | 73 | 1016.6 |
| 20260504172453 | 14 | 125 | 8.0 | 11.3 | 0.00 | 0.00 | 0.00 | 73 | 1016.6 |
| 20260504172244 | 14 | 171 | 0.0 | 1.6 | 0.00 | 0.00 | 0.00 | 74 | 1016.6 |
| 20260504172041 | 14 | 171 | 0.0 | 1.6 | 0.00 | 0.00 | 0.00 | 74 | 1016.6 |
| 20260504171838 | 14 | 171 | 0.0 | 1.6 | 0.00 | 0.00 | 0.00 | 74 | 1016.6 |
| 20260504171631 | 14 | 171 | 0.0 | 1.6 | 0.00 | 0.00 | 0.00 | 74 | 1016.6 |
| 20260504171609 | 13 | 91 | 8.0 | 11.3 | 0.00 | 0.00 | 0.00 | 74 | 1016.3 |
| 20260504171149 | 13 | 115 | 9.7 | 12.9 | 0.00 | 0.00 | 0.00 | 74 | 1016.6 |
| 20260504170945 | 13 | 94 | 1.6 | 3.2 | 0.00 | 0.00 | 0.00 | 74 | 1016.6 |
| 20260504170737 | 13 | 92 | 6.4 | 9.7 | 0.00 | 0.00 | 0.00 | 74 | 1016.3 |
| 20260504170533 | 13 | 136 | 11.3 | 14.5 | 0.00 | 0.00 | 0.00 | 74 | 1016.6 |
| 20260504170330 | 13 | 119 | 6.4 | 9.7 | 0.00 | 0.00 | 0.00 | 74 | 1016.6 |
| 20260504170307 | 13 | 133 | 4.8 | 4.8 | 0.00 | 0.00 | 0.00 | 74 | 1016.3 |
| 20260504160345 | 13 | 108 | 8.0 | 11.3 | 0.00 | 0.00 | 0.00 | 75 | 1016.6 |
| 20260504160140 | 13 | 157 | 3.2 | 4.8 | 0.00 | 0.00 | 0.00 | 76 | 1016.6 |
| 20260504150950 | 12 | 259 | 1.6 | 3.2 | 0.00 | 0.00 | 0.00 | 79 | 1016.3 |
| 20260504150744 | 12 | 137 | 4.8 | 4.8 | 0.00 | 0.00 | 0.00 | 79 | 1016.3 |
| 20260504150540 | 12 | 137 | 4.8 | 4.8 | 0.00 | 0.00 | 0.00 | 79 | 1016.3 |
| 20260504150336 | -17 | 0 | 0.0 | 0.0 | 0.00 | 0.00 | 0.00 | 100 | 1016.3 |
| 20260504150132 | -17 | 0 | 0.0 | 0.0 | 0.00 | 0.00 | 0.00 | 100 | 1016.3 |
| 20260504141145 | 12 | 119 | 0.0 | 0.0 | 0.00 | 0.00 | 0.00 | 82 | 1015.6 |
| 20260504140941 | -17 | 0 | 0.0 | 0.0 | 0.00 | 0.00 | 0.00 | 100 | 1015.6 |
| 20260504140716 | -17 | 0 | 0.0 | 0.0 | 0.00 | 0.00 | 0.00 | 100 | 1015.6 |
| 20260504140258 | 11 | 116 | 1.6 | 3.2 | 0.00 | 0.00 | 0.00 | 82 | 1015.2 |
| 20260504130654 | 10 | 190 | 0.0 | 0.0 | 0.00 | 0.00 | 0.00 | 84 | 1014.6 |
| 20260504130444 | 10 | 190 | 0.0 | 0.0 | 0.00 | 0.00 | 0.00 | 84 | 1014.6 |
| 20260504130239 | 10 | 190 | 0.0 | 0.0 | 0.00 | 0.00 | 0.00 | 84 | 1014.6 |